Weather History for Miles City, MT

Change the Weather History Date:

Saturday, January 26, 2013

  Actual Average Record
Temperature  
Mean Temperature 40 °F 20 °F  
Max Temperature 49 °F 31 °F 54 °F (2006)
Min Temperature 31 °F 10 °F -33 °F (1957)
Degree Days  
Heating Degree Days 25 45  
Month to date heating degree days 1121 1189  
Since 1 July heating degree days 4031 4373  
Cooling Degree Days 0 0  
Month to date cooling degree days 0 0  
Year to date cooling degree days 0 0  
Moisture  
Dew Point 29 °F    
Average Humidity 71    
Maximum Humidity 92    
Minimum Humidity 50    
Precipitation  
Precipitation 0.00 in 0.01 in 0.29 in (1968)
Month to date precipitation 0.07 0.28  
Year to date precipitation 0.07 0.28  
Sea Level Pressure  
Sea Level Pressure 29.84 in    
Wind  
Wind Speed 7 mph (SE)    
Max Wind Speed 13 mph    
Max Gust Speed 14 mph    
Visibility 10 miles    
Events      
T = Trace of Precipitation, MM = Missing Value Source: NWS Daily Summary

Daily Weather History Graph

Daily Weather History Graph

Search for Another Location

Airport:

Trip Planner

Search our weather history database for the weather conditions in past years. The results will help you decide how hot, cold, wet, or windy it might be!

Date:

Astronomy

Jan. 26, 2013 Rise Set
Actual Time 7:33 AM MST 4:59 PM MST
Civil Twilight 7:00 AM MST 5:32 PM MST
Nautical Twilight 6:24 AM MST 6:08 PM MST
Astronomical Twilight 5:48 AM MST 6:44 PM MST
Moon 5:00 PM MST (1/26) 6:50 AM MST (1/26)
Length of Visible Light 10h 31m
Length of Day
9h 26m
Full, 100% of the Moon is Illuminated
Jan 26
Full
Jan 26
Full
Feb 3
Last Quarter
Feb 10
New
Feb 17
First Quarter

Hourly Weather History & Observations

Time (MST) Temp. Windchill Dew Point Humidity Pressure Visibility Wind Dir Wind Speed Gust Speed Precip Events Conditions
12:53 AM 37.9 °F 32.1 °F 27.0 °F 65% 29.92 in 10.0 mi SE 8.1 mph - N/A   Overcast
1:53 AM 36.0 °F 31.1 °F 27.0 °F 70% 29.91 in 10.0 mi SE 5.8 mph - N/A   Overcast
2:53 AM 36.0 °F 30.3 °F 27.0 °F 70% 29.91 in 10.0 mi SSE 6.9 mph - N/A   Overcast
3:53 AM 36.0 °F 29.6 °F 27.0 °F 70% 29.89 in 10.0 mi SSE 8.1 mph - N/A   Overcast
4:53 AM 35.1 °F 26.9 °F 27.0 °F 72% 29.89 in 10.0 mi SSE 11.5 mph - N/A   Overcast
5:53 AM 35.1 °F 26.9 °F 27.0 °F 72% 29.88 in 10.0 mi SE 11.5 mph - N/A   Overcast
6:53 AM 34.0 °F 26.6 °F 27.0 °F 75% 29.90 in 10.0 mi SSE 9.2 mph - N/A   Mostly Cloudy
7:53 AM 33.1 °F 26.1 °F 26.1 °F 75% 29.90 in 10.0 mi SE 8.1 mph - N/A   Overcast
8:53 AM 35.1 °F 31.0 °F 27.0 °F 72% 29.91 in 10.0 mi SSE 4.6 mph - N/A   Overcast
9:53 AM 37.0 °F 32.4 °F 28.0 °F 70% 29.91 in 10.0 mi SSE 5.8 mph - N/A   Partly Cloudy
10:53 AM 39.9 °F 36.7 °F 28.0 °F 63% 29.90 in 10.0 mi SE 4.6 mph - N/A   Clear
11:53 AM 43.0 °F 40.3 °F 28.9 °F 58% 29.88 in 10.0 mi SSE 4.6 mph - N/A   Clear
12:53 PM 46.0 °F 43.1 °F 30.0 °F 54% 29.85 in 10.0 mi SE 5.8 mph - N/A   Clear
1:53 PM 48.0 °F - 30.9 °F 52% 29.83 in 10.0 mi SSE 3.5 mph - N/A   Clear
2:53 PM 48.9 °F - 32.0 °F 52% 29.81 in 10.0 mi SSE 4.6 mph - N/A   Clear
3:53 PM 48.0 °F - 33.1 °F 56% 29.79 in 10.0 mi SSE 5.8 mph - N/A   Clear
4:53 PM 42.1 °F 37.1 °F 30.9 °F 65% 29.80 in 10.0 mi SSE 8.1 mph - N/A   Clear
5:53 PM 41.0 °F 35.8 °F 30.9 °F 67% 29.79 in 10.0 mi SSE 8.1 mph - N/A   Clear
6:53 PM 39.9 °F 36.7 °F 30.9 °F 70% 29.79 in 10.0 mi SE 4.6 mph - N/A   Clear
7:53 PM 39.0 °F 34.0 °F 30.9 °F 73% 29.78 in 10.0 mi SE 6.9 mph - N/A   Clear
8:53 PM 35.1 °F 29.3 °F 30.0 °F 82% 29.76 in 10.0 mi SSE 6.9 mph - N/A   Clear
9:53 PM 35.1 °F 32.2 °F 28.9 °F 78% 29.76 in 10.0 mi East 3.5 mph - N/A   Clear
10:53 PM 30.9 °F 25.2 °F 28.0 °F 89% 29.75 in 10.0 mi NE 5.8 mph - N/A   Clear
11:53 PM 35.1 °F 29.3 °F 28.0 °F 76% 29.73 in 10.0 mi SE 6.9 mph - N/A   Clear